This is the latest recevied weather packets stored in our database for station/object KD5FHA. If no packets are shown the sender has not sent any weather packets the latest 10 day(s).
| Time | Temp. | Humidity | Pressure | Rain* | Wind** | Luminosity | Snow |
|---|---|---|---|---|---|---|---|
| 1777468714 | 16.67° C | 74% | 1015.8 hPa | 0 mm | - | 40 W/m² | - |
| 1777468411 | 16.67° C | 73% | 1015.5 hPa | 0 mm | - | 24 W/m² | - |
| 1777468107 | 16.67° C | 73% | 1015.6 hPa | 0 mm | - | 27 W/m² | - |
| 1777467804 | 16.67° C | 73% | 1015.4 hPa | 0 mm | - | 28 W/m² | - |
| 1777467499 | 17.22° C | 73% | 1015.2 hPa | 0 mm | - | 33 W/m² | - |
| 1777467194 | 17.22° C | 73% | 1015.5 hPa | 0 mm | - | 21 W/m² | - |
| 1777466892 | 17.22° C | 73% | 1015.4 hPa | 0 mm | - | 24 W/m² | - |
| 1777466590 | 17.22° C | 72% | 1015.4 hPa | 0 mm | - | 17 W/m² | - |
| 1777466286 | 17.22° C | 71% | 1014.9 hPa | 0 mm | - | 18 W/m² | - |
| 1777465982 | 17.22° C | 71% | 1014.9 hPa | 0 mm | - | 21 W/m² | - |
| 1777465678 | 17.22° C | 72% | 1014.9 hPa | 0 mm | - | 19 W/m² | - |
| 1777465374 | 17.22° C | 71% | 1015 hPa | 0 mm | - | 8 W/m² | - |
| 1777465072 | 17.78° C | 71% | 1014.9 hPa | 0 mm | - | 6 W/m² | - |
| 1777464768 | 17.78° C | 72% | 1014.9 hPa | 0 mm | - | 6 W/m² | - |
| 1777464464 | 17.78° C | 73% | 1014.9 hPa | 0 mm | - | 5 W/m² | - |
| 1777464160 | 17.78° C | 74% | 1014.6 hPa | 0 mm | - | 2 W/m² | - |
| 1777463860 | 17.78° C | 73% | 1014.6 hPa | 0 mm | - | 2 W/m² | - |
| 1777463556 | 18.33° C | 73% | 1014.3 hPa | 0 mm | - | 2 W/m² | - |
| 1777463251 | 18.33° C | 73% | 1014.1 hPa | 0 mm | - | 1 W/m² | - |
| 1777462947 | 18.33° C | 74% | 1013.9 hPa | 0 mm | - | 1 W/m² | - |
| 1777462644 | 18.33° C | 75% | 1014 hPa | 0 mm | - | 0 W/m² | - |
| 1777462339 | 18.33° C | 77% | 1014.2 hPa | 0 mm | - | 0 W/m² | - |
| 1777462035 | 18.33° C | 77% | 1014.1 hPa | 0 mm | - | 0 W/m² | - |
| 1777461732 | 18.33° C | 78% | 1014.1 hPa | 0 mm | - | 0 W/m² | - |
| 1777461427 | 18.33° C | 79% | 1014 hPa | 0 mm | - | 0 W/m² | - |
* Rain latest hour (hover to see other rain measurements)
** Current wind speed in m/s (hover to see current wind gust speed)